sat.trackr.live / text

‹ back to catalog

STARLINK-2214

NORAD 48566 · 2021-041P

PAYLOAD ACTIVE UNKNOWN

§ Identity

Operator
Country
US
Launch date
2021-05-15
Launch site
AFETR
Launch vehicle
Mass (kg)
RCS (m²)

Purposes: comms

External: N2YO · Heavens-Above · Gunter

§ Orbital elements

Epoch: 2026-09-09T15:05:46.730112Z

Period
94.01 min
Inclination
53.1597°
Eccentricity
0.0000997
Mean motion
15.31721451 rev/d
Perigee alt
470.0 km
Apogee alt
471.4 km
Semi-major
6,848.8 km
B*
1.0765e-4
RAAN
12.9057°
Arg perigee
72.6475°
Mean anomaly
287.4635°
Rev number
29,313

§ Raw data

STARLINK-22141 48566U 21041P   26252.62901308  .00002979  00000+0  10765-3 0  99912 48566  53.1597  12.9057 0000997  72.6475 287.4635 15.31721451293134

JSON: /api/v1/satellites/48566 · /tle

For live sub-satellite position, see the globe view (requires WebGL).

§ Visibility from observer

Set your observer location to see the next 7 days of passes ≥ 10°. The values pass through the URL so the page stays shareable.

No JS? Fill the form by hand. The geolocation button needs JavaScript.